Weather History for Holland, MI

Change the Weather History Date:

Saturday, June 7, 2014

  Actual Average Record
Temperature  
Mean Temperature 69 °F 66 °F  
Max Temperature 85 °F 76 °F 93 °F (2007)
Min Temperature 52 °F 56 °F 38 °F (1958)
Degree Days  
Heating Degree Days 0 2  
Month to date heating degree days 12 22  
Since 1 June heating degree days 12 22  
Since 1 July heating degree days 7037 6134  
Cooling Degree Days 4 3  
Month to date cooling degree days 31 21  
Year to date cooling degree days 70 63  
Since 1 June cooling degree days 31 21  
Growing Degree Days 18 (Base 50)    
Moisture  
Dew Point 49 °F    
Average Humidity 55    
Maximum Humidity 83    
Minimum Humidity 27    
Precipitation  
Precipitation 0.00 in 0.17 in 4.16 in (1967)
Month to date precipitation 0.25 0.97  
Year to date precipitation 9.78 13.56  
Sea Level Pressure  
Sea Level Pressure 29.96 in    
Wind  
Wind Speed 5 mph (ENE)    
Max Wind Speed 14 mph    
Max Gust Speed 18 mph    
Visibility 10 miles    
Events      
T = Trace of Precipitation, MM = Missing Value Source: NWS Daily Summary

Daily Weather History Graph

Daily Weather History Graph

Search for Another Location

Airport:

Trip Planner

Search our weather history database for the weather conditions in past years. The results will help you decide how hot, cold, wet, or windy it might be!

Date:

Astronomy

Jun. 07, 2014 Rise Set
Actual Time 6:06 AM EDT 9:20 PM EDT
Civil Twilight 5:31 AM EDT 9:55 PM EDT
Nautical Twilight 4:47 AM EDT 10:39 PM EDT
Astronomical Twilight 3:52 AM EDT 11:34 PM EDT
Moon 3:30 PM EDT (6/7) 2:35 AM EDT (6/7)
Length of Visible Light 16h 23m
Length of Day
15h 13m
Waxing Gibbous, 67% of the Moon is Illuminated
Jun 7
Waxing Gibbous
Jun 13
Full
Jun 19
Last Quarter
Jun 27
New
Jul 5
First Quarter

Hourly Weather History & Observations

Time (EDT) Temp. Heat Index Dew Point Humidity Pressure Visibility Wind Dir Wind Speed Gust Speed Precip Events Conditions
12:53 AM 57.0 °F - 46.9 °F 69% 30.03 in 10.0 mi Calm Calm - N/A   Clear
1:53 AM 57.0 °F - 46.9 °F 69% 30.02 in 10.0 mi Calm Calm - N/A   Clear
2:53 AM 55.9 °F - 46.9 °F 72% 30.01 in 10.0 mi East 3.5 mph - N/A   Clear
3:53 AM 55.0 °F - 48.9 °F 80% 30.00 in 10.0 mi East 3.5 mph - N/A   Clear
5:53 AM 53.1 °F - 48.0 °F 83% 30.04 in 10.0 mi Calm Calm - N/A   Clear
6:53 AM 54.0 °F - 48.0 °F 80% 30.04 in 10.0 mi East 3.5 mph - N/A   Clear
7:53 AM 62.1 °F - 53.1 °F 72% 30.03 in 10.0 mi East 3.5 mph - N/A   Clear
9:53 AM 77.0 °F - 53.1 °F 43% 30.01 in 10.0 mi SSE 9.2 mph - N/A   Clear
10:53 AM 81.0 °F - 46.9 °F 30% 29.99 in 10.0 mi SE 11.5 mph - N/A   Clear
11:53 AM 82.9 °F - 46.9 °F 28% 30.00 in 10.0 mi SE 10.4 mph - N/A   Clear
12:53 PM 84.9 °F - 46.9 °F 27% 29.99 in 10.0 mi SE 10.4 mph - N/A   Clear
1:53 PM 82.0 °F 81.2 °F 53.1 °F 37% 29.97 in 10.0 mi West 10.4 mph - N/A   Clear
2:53 PM 82.9 °F 81.8 °F 53.1 °F 36% 29.95 in 10.0 mi WNW 11.5 mph - N/A   Clear
3:53 PM 84.0 °F - 51.1 °F 32% 29.92 in 10.0 mi West 10.4 mph - N/A   Clear
4:53 PM 82.0 °F - 48.0 °F 30% 29.91 in 10.0 mi WNW 9.2 mph - N/A   Clear
5:53 PM 79.0 °F - 48.0 °F 34% 29.91 in 10.0 mi West 6.9 mph - N/A   Clear
6:53 PM 78.1 °F - 48.9 °F 36% 29.90 in 10.0 mi NW 5.8 mph - N/A   Clear
7:53 PM 75.9 °F - 48.0 °F 37% 29.88 in 10.0 mi NNW 3.5 mph - N/A   Clear
8:53 PM 75.0 °F - 48.0 °F 38% 29.88 in 10.0 mi Calm Calm - N/A   Clear
9:53 PM 72.0 °F - 48.9 °F 44% 29.87 in 10.0 mi Calm Calm - N/A   Clear
10:53 PM 73.0 °F - 46.0 °F 38% 29.86 in 10.0 mi NE 3.5 mph - N/A   Clear
11:53 PM 70.0 °F - 48.0 °F 46% 29.86 in 10.0 mi Calm Calm - N/A   Scattered Clouds